Regional Weather Roundup
Issued by NWS

Home | Current Version | Previous Version | Graphics & Text | Print | Product List | Glossary On
Versions: 1 2 3 4 5 6 7 8 9 10 11 12 13 14 15 16 17 18 19 20 21 22 23 24 25 26 27 28 29 30 31 32 33 34 35 36 37 38 39 40 41 42 43 44 45 46 47 48 49 50
000
ASUS43 KOAX 100510
RWRNE

WEATHER ROUNDUP FOR NEBRASKA
NATIONAL WEATHER SERVICE OMAHA NE
1100 PM CST TUE FEB 09 2016

NOTES: SATELLITE DATA IS BEING USED TO AUGMENT CLOUD COVER ABOVE
       12000 FEET.
       "FAIR" INDICATES FEW OR NO CLOUDS BELOW 12,000 FEET WITH NO
       SIGNIFICANT WEATHER AND/OR OBSTRUCTIONS TO VISIBILITY.

  * THESE STATIONS DO NOT REPORT WEATHER SUCH AS RAIN...SNOW OR FOG.

NEZ001>004-019>022-054>056-100600-
NEBRASKA PANHANDLE

CITY           SKY/WX    TMP DP  RH WIND       PRES   REMARKS
SCOTTSBLUFF    CLEAR     31  26  82 NW6       30.17S WCI  25
ALLIANCE       CLEAR     31  26  82 W13       30.11F WCI  21
CHADRON        CLEAR     35  28  75 W10       30.11S WCI  27
KIMBALL        CLEAR     36  26  66 W14       30.20S WCI  27
SIDNEY         CLEAR     38  27  64 W18       30.17F WCI  28
$$

NEZ057>060-069>072-079>082-100600-
SOUTHWEST NEBRASKA

CITY           SKY/WX    TMP DP  RH WIND       PRES   REMARKS
NORTH PLATTE   CLEAR     30  26  85 CALM      30.11F
IMPERIAL       CLEAR     37  28  70 W14       30.14F WCI  28
LEXINGTON      CLOUDY    33  25  70 CALM      30.13F
MCCOOK         PTCLDY    32  27  81 SW8       30.15F WCI  25
OGALLALA       CLEAR     33  28  81 SW12      30.12F WCI  25
$$

NEZ005>010-023>029-035>040-094-100600-
NORTH CENTRAL NEBRASKA

CITY           SKY/WX    TMP DP  RH WIND       PRES   REMARKS
VALENTINE      CLOUDY    32  28  85 CALM      30.07F
AINSWORTH      CLOUDY    34  28  76 W5        30.07F WCI  30
BROKEN BOW     CLOUDY    32  26  78 SW5       30.10F WCI  27
O`NEILL        CLOUDY    28  21  74 S5        30.09F WCI  23
ORD            CLOUDY    28  22  78 CALM      30.10F
THEDFORD       CLOUDY    35  32  88 CALM      30.09S
$$

NEZ041-046>049-061>064-073>077-083>087-100600-
SOUTH CENTRAL NEBRASKA

CITY           SKY/WX    TMP DP  RH WIND       PRES   REMARKS
GRAND ISLAND   CLOUDY    25  16  68 S13       30.15F WCI  14
AURORA         CLOUDY    24  15  69 S8        30.16F WCI  15
HASTINGS       CLOUDY    24  16  71 S12       30.14F WCI  13
HEBRON         CLOUDY    24  16  71 SW5       30.22F WCI  18
HOLDREGE       CLOUDY    28  22  77 SW10      30.14F WCI  19
YORK           CLOUDY    23  16  74 SW6       30.18F WCI  16
$$

NEZ011>018-030>034-042>045-100600-
NORTHEAST NEBRASKA

CITY           SKY/WX    TMP DP  RH WIND       PRES   REMARKS
NORFOLK        CLOUDY    25  16  68 SW12      30.13F WCI  14
ALBION         CLOUDY    26  17  68 S7        30.14F WCI  18
BLAIR          CLEAR     19  14  81 CALM      30.19F
COLUMBUS *     CLOUDY    25  10  54 SW7       30.17F WCI  17
FREMONT        CLOUDY    19  14  80 CALM      30.20F
WAYNE          CLOUDY    18  13  81 S6        30.16F WCI  10
$$

NEZ050>053-065>068-078-088>093-100600-
SOUTHEAST NEBRASKA

CITY           SKY/WX    TMP DP  RH WIND       PRES   REMARKS
LINCOLN        CLOUDY    21  14  74 S3        30.22F
OMAHA EPPLEY   CLEAR     22  13  68 CALM      30.21F
BEATRICE       PTCLDY    22  16  76 W6        30.22F WCI  15
FALLS CITY     CLEAR     19  10  68 W3        30.25F
NEBRASKA CITY  CLEAR     19  11  73 W5        30.23S WCI  12
PLATTSMOUTH    CLEAR     20  13  75 SW5       30.21F WCI  13
$$

NEZ044-045-051>053-067-100600-
OMAHA AREA

CITY           SKY/WX    TMP DP  RH WIND       PRES   REMARKS
OMAHA EPPLEY   CLEAR     22  13  68 CALM      30.21F
BLAIR          CLEAR     19  14  81 CALM      30.19F
FREMONT        CLOUDY    19  14  80 CALM      30.20F
MILLARD        CLEAR     20  15  78 CALM      30.22F
OFFUTT AFB     CLEAR     18  14  84 CALM      30.21F
PLATTSMOUTH    CLEAR     20  13  75 SW5       30.21F WCI  13
WAHOO          CLOUDY    16  12  82 SE3       30.20F
$$



USA.gov is the U.S. government's official web portal to all federal, state and local government web resources and services.